Time,TemperatureF,DewpointF,PressureIn,WindDirection,WindDirectionDegrees,WindSpeedMPH,WindSpeedGustMPH,Humidity,HourlyPrecipIn,Conditions,Clouds,dailyrainin,SoftwareType,DateUTC
2013-05-30 00:02:00,52.0,-99.9,-100.00,West,270,11.0,12.0,-999,-99.99,,,-99.99,,2013-05-30 07:02:00,
2013-05-30 00:12:00,52.0,-99.9,-100.00,West,270,11.0,12.0,-999,-99.99,,,-99.99,,2013-05-30 07:12:00,
2013-05-30 00:22:00,52.0,-99.9,-100.00,West,270,11.0,12.0,-999,-99.99,,,-99.99,,2013-05-30 07:22:00,
2013-05-30 00:32:00,52.0,-99.9,-100.00,West,270,9.0,12.0,-999,-99.99,,,-99.99,,2013-05-30 07:32:00,
2013-05-30 00:42:00,52.0,-99.9,-100.00,West,270,9.0,12.0,-999,-99.99,,,-99.99,,2013-05-30 07:42:00,
2013-05-30 00:52:00,51.0,-99.9,-100.00,West,270,10.0,12.0,-999,-99.99,,,-99.99,,2013-05-30 07:52:00,
2013-05-30 01:02:00,52.0,-99.9,-100.00,West,270,10.0,12.0,-999,-99.99,,,-99.99,,2013-05-30 08:02:00,
2013-05-30 01:11:00,52.0,-99.9,-100.00,West,270,10.0,12.0,-999,-99.99,,,-99.99,,2013-05-30 08:11:00,
2013-05-30 01:22:00,52.0,-99.9,-100.00,West,270,10.0,12.0,-999,-99.99,,,-99.99,,2013-05-30 08:22:00,
2013-05-30 01:32:00,52.0,-99.9,-100.00,West,270,12.0,13.0,-999,-99.99,,,-99.99,,2013-05-30 08:32:00,
2013-05-30 01:42:00,52.0,-99.9,-100.00,West,270,12.0,13.0,-999,-99.99,,,-99.99,,2013-05-30 08:42:00,
2013-05-30 01:53:00,52.0,-99.9,-100.00,West,270,11.0,13.0,-999,-99.99,,,-99.99,,2013-05-30 08:53:00,
2013-05-30 02:01:00,52.0,-99.9,-100.00,West,270,7.0,12.0,-999,-99.99,,,-99.99,,2013-05-30 09:01:00,
2013-05-30 02:11:00,52.0,-99.9,-100.00,West,270,7.0,12.0,-999,-99.99,,,-99.99,,2013-05-30 09:11:00,
2013-05-30 02:22:00,51.0,-99.9,-100.00,SW,225,6.0,12.0,-999,-99.99,,,-99.99,,2013-05-30 09:22:00,
2013-05-30 02:33:00,51.0,-99.9,-100.00,SW,225,6.0,8.0,-999,-99.99,,,-99.99,,2013-05-30 09:33:00,
2013-05-30 02:43:00,51.0,-99.9,-100.00,SW,225,6.0,8.0,-999,-99.99,,,-99.99,,2013-05-30 09:43:00,
2013-05-30 02:53:00,51.0,-99.9,-100.00,SE,135,6.0,8.0,-999,-99.99,,,-99.99,,2013-05-30 09:53:00,
2013-05-30 03:03:00,51.0,-99.9,-100.00,South,180,0.0,7.0,-999,-99.99,,,-99.99,,2013-05-30 10:03:00,
2013-05-30 03:13:00,50.0,-99.9,-100.00,SE,135,3.0,6.0,-999,-99.99,,,-99.99,,2013-05-30 10:13:00,
2013-05-30 03:23:00,50.0,-99.9,-100.00,SE,135,3.0,6.0,-999,-99.99,,,-99.99,,2013-05-30 10:23:00,
2013-05-30 03:33:00,50.0,-99.9,-100.00,SW,225,2.0,5.0,-999,-99.99,,,-99.99,,2013-05-30 10:33:00,
2013-05-30 03:42:00,50.0,-99.9,-100.00,SW,225,2.0,5.0,-999,-99.99,,,-99.99,,2013-05-30 10:42:00,
2013-05-30 03:52:00,50.0,-99.9,-100.00,SW,225,3.0,6.0,-999,-99.99,,,-99.99,,2013-05-30 10:52:00,
2013-05-30 04:03:00,50.0,-99.9,-100.00,SE,135,2.0,6.0,-999,-99.99,,,-99.99,,2013-05-30 11:03:00,
2013-05-30 04:12:00,50.0,-99.9,-100.00,SE,135,2.0,6.0,-999,-99.99,,,-99.99,,2013-05-30 11:12:00,
2013-05-30 04:22:00,50.0,-99.9,-100.00,SE,135,3.0,6.0,-999,-99.99,,,-99.99,,2013-05-30 11:22:00,
2013-05-30 04:32:00,50.0,-99.9,-100.00,SE,135,3.0,6.0,-999,-99.99,,,-99.99,,2013-05-30 11:32:00,
2013-05-30 04:42:00,50.0,-99.9,-100.00,SE,135,3.0,6.0,-999,-99.99,,,-99.99,,2013-05-30 11:42:00,
2013-05-30 04:52:00,50.0,-99.9,-100.00,South,180,1.0,4.0,-999,-99.99,,,-99.99,,2013-05-30 11:52:00,
2013-05-30 05:02:00,50.0,-99.9,-100.00,SE,135,3.0,4.0,-999,-99.99,,,-99.99,,2013-05-30 12:02:00,
2013-05-30 05:11:00,50.0,-99.9,-100.00,SE,135,3.0,4.0,-999,-99.99,,,-99.99,,2013-05-30 12:11:00,
2013-05-30 05:22:00,50.0,-99.9,-100.00,SE,135,4.0,6.0,-999,-99.99,,,-99.99,,2013-05-30 12:22:00,
2013-05-30 05:32:00,50.0,-99.9,-100.00,SE,135,5.0,6.0,-999,-99.99,,,-99.99,,2013-05-30 12:32:00,
2013-05-30 05:42:00,50.0,-99.9,-100.00,SE,135,5.0,6.0,-999,-99.99,,,-99.99,,2013-05-30 12:42:00,
2013-05-30 05:52:00,50.0,-99.9,-100.00,SE,135,6.0,6.0,-999,-99.99,,,-99.99,,2013-05-30 12:52:00,
2013-05-30 06:01:00,50.0,-99.9,-100.00,South,180,1.0,6.0,-999,-99.99,,,-99.99,,2013-05-30 13:01:00,
2013-05-30 06:11:00,50.0,-99.9,-100.00,South,180,1.0,6.0,-999,-99.99,,,-99.99,,2013-05-30 13:11:00,
2013-05-30 06:22:00,50.0,-99.9,-100.00,SW,225,3.0,6.0,-999,-99.99,,,-99.99,,2013-05-30 13:22:00,
2013-05-30 06:32:00,51.0,-99.9,-100.00,SW,225,4.0,6.0,-999,-99.99,,,-99.99,,2013-05-30 13:32:00,
2013-05-30 06:42:00,51.0,-99.9,-100.00,SE,135,3.0,6.0,-999,-99.99,,,-99.99,,2013-05-30 13:42:00,
2013-05-30 06:52:00,51.0,-99.9,-100.00,SE,135,3.0,6.0,-999,-99.99,,,-99.99,,2013-05-30 13:52:00,
2013-05-30 07:02:00,51.0,-99.9,-100.00,South,180,5.0,6.0,-999,-99.99,,,-99.99,,2013-05-30 14:02:00,
2013-05-30 07:12:00,51.0,-99.9,-100.00,South,180,5.0,6.0,-999,-99.99,,,-99.99,,2013-05-30 14:12:00,
2013-05-30 07:22:00,51.0,-99.9,-100.00,South,180,3.0,6.0,-999,-99.99,,,-99.99,,2013-05-30 14:22:00,
2013-05-30 07:32:00,51.0,-99.9,-100.00,South,180,3.0,6.0,-999,-99.99,,,-99.99,,2013-05-30 14:32:00,
2013-05-30 07:42:00,51.0,-99.9,-100.00,South,180,3.0,6.0,-999,-99.99,,,-99.99,,2013-05-30 14:42:00,
2013-05-30 07:52:00,51.0,-99.9,-100.00,South,180,4.0,6.0,-999,-99.99,,,-99.99,,2013-05-30 14:52:00,
2013-05-30 08:01:00,51.0,-99.9,-100.00,South,180,6.0,6.0,-999,-99.99,,,-99.99,,2013-05-30 15:01:00,
2013-05-30 08:11:00,51.0,-99.9,-100.00,South,180,6.0,6.0,-999,-99.99,,,-99.99,,2013-05-30 15:11:00,
2013-05-30 08:22:00,51.0,-99.9,-100.00,South,180,6.0,6.0,-999,-99.99,,,-99.99,,2013-05-30 15:22:00,
2013-05-30 08:34:00,51.0,-99.9,-100.00,South,180,3.0,6.0,-999,-99.99,,,-99.99,,2013-05-30 15:34:00,
2013-05-30 08:43:00,51.0,-99.9,-100.00,South,180,3.0,6.0,-999,-99.99,,,-99.99,,2013-05-30 15:43:00,
2013-05-30 08:53:00,52.0,-99.9,-100.00,South,180,2.0,6.0,-999,-99.99,,,-99.99,,2013-05-30 15:53:00,
2013-05-30 09:03:00,52.0,-99.9,-100.00,South,180,3.0,6.0,-999,-99.99,,,-99.99,,2013-05-30 16:03:00,
2013-05-30 09:13:00,53.0,-99.9,-100.00,SW,225,6.0,9.0,-999,-99.99,,,-99.99,,2013-05-30 16:13:00,
2013-05-30 09:23:00,53.0,-99.9,-100.00,SW,225,6.0,9.0,-999,-99.99,,,-99.99,,2013-05-30 16:23:00,
2013-05-30 09:33:00,53.0,-99.9,-100.00,SW,225,11.0,13.0,-999,-99.99,,,-99.99,,2013-05-30 16:33:00,
2013-05-30 09:42:00,53.0,-99.9,-100.00,SW,225,11.0,13.0,-999,-99.99,,,-99.99,,2013-05-30 16:42:00,
2013-05-30 09:53:00,53.0,-99.9,-100.00,West,270,12.0,17.0,-999,-99.99,,,-99.99,,2013-05-30 16:53:00,
2013-05-30 10:03:00,54.0,-99.9,-100.00,West,270,12.0,17.0,-999,-99.99,,,-99.99,,2013-05-30 17:03:00,
2013-05-30 10:12:00,54.0,-99.9,-100.00,West,270,12.0,17.0,-999,-99.99,,,-99.99,,2013-05-30 17:12:00,
2013-05-30 10:22:00,54.0,-99.9,-100.00,West,270,15.0,17.0,-999,-99.99,,,-99.99,,2013-05-30 17:22:00,
2013-05-30 10:32:00,54.0,-99.9,-100.00,West,270,15.0,17.0,-999,-99.99,,,-99.99,,2013-05-30 17:32:00,
2013-05-30 10:42:00,54.0,-99.9,-100.00,West,270,15.0,17.0,-999,-99.99,,,-99.99,,2013-05-30 17:42:00,
2013-05-30 10:52:00,54.0,-99.9,-100.00,West,270,16.0,19.0,-999,-99.99,,,-99.99,,2013-05-30 17:52:00,
2013-05-30 11:02:00,55.0,-99.9,-100.00,West,270,16.0,19.0,-999,-99.99,,,-99.99,,2013-05-30 18:02:00,
2013-05-30 11:11:00,55.0,-99.9,-100.00,West,270,14.0,19.0,-999,-99.99,,,-99.99,,2013-05-30 18:11:00,
2013-05-30 11:22:00,55.0,-99.9,-100.00,West,270,14.0,19.0,-999,-99.99,,,-99.99,,2013-05-30 18:22:00,
2013-05-30 11:32:00,56.0,-99.9,-100.00,West,270,16.0,18.0,-999,-99.99,,,-99.99,,2013-05-30 18:32:00,
2013-05-30 11:43:00,56.0,-99.9,-100.00,West,270,16.0,18.0,-999,-99.99,,,-99.99,,2013-05-30 18:43:00,
2013-05-30 11:52:00,56.0,-99.9,-100.00,West,270,15.0,18.0,-999,-99.99,,,-99.99,,2013-05-30 18:52:00,
2013-05-30 12:02:00,58.0,-99.9,-100.00,West,270,16.0,19.0,-999,-99.99,,,-99.99,,2013-05-30 19:02:00,
2013-05-30 12:12:00,57.0,-99.9,-100.00,West,270,17.0,20.0,-999,-99.99,,,-99.99,,2013-05-30 19:12:00,
2013-05-30 12:23:00,57.0,-99.9,-100.00,West,270,17.0,20.0,-999,-99.99,,,-99.99,,2013-05-30 19:23:00,
2013-05-30 12:32:00,57.0,-99.9,-100.00,West,270,17.0,20.0,-999,-99.99,,,-99.99,,2013-05-30 19:32:00,
2013-05-30 12:42:00,57.0,-99.9,-100.00,West,270,17.0,20.0,-999,-99.99,,,-99.99,,2013-05-30 19:42:00,
2013-05-30 12:53:00,56.0,-99.9,-100.00,West,270,18.0,20.0,-999,-99.99,,,-99.99,,2013-05-30 19:53:00,
2013-05-30 13:02:00,54.0,-99.9,-100.00,West,270,16.0,21.0,-999,-99.99,,,-99.99,,2013-05-30 20:02:00,
2013-05-30 13:11:00,54.0,-99.9,-100.00,West,270,16.0,21.0,-999,-99.99,,,-99.99,,2013-05-30 20:11:00,
2013-05-30 13:23:00,55.0,-99.9,-100.00,West,270,10.0,21.0,-999,-99.99,,,-99.99,,2013-05-30 20:23:00,
2013-05-30 13:33:00,55.0,-99.9,-100.00,West,270,10.0,18.0,-999,-99.99,,,-99.99,,2013-05-30 20:33:00,
2013-05-30 13:42:00,55.0,-99.9,-100.00,West,270,10.0,18.0,-999,-99.99,,,-99.99,,2013-05-30 20:42:00,
2013-05-30 13:52:00,55.0,-99.9,-100.00,West,270,11.0,15.0,-999,-99.99,,,-99.99,,2013-05-30 20:52:00,
2013-05-30 14:02:00,56.0,-99.9,-100.00,West,270,11.0,15.0,-999,-99.99,,,-99.99,,2013-05-30 21:02:00,
2013-05-30 14:11:00,56.0,-99.9,-100.00,West,270,11.0,14.0,-999,-99.99,,,-99.99,,2013-05-30 21:11:00,
2013-05-30 14:22:00,56.0,-99.9,-100.00,West,270,11.0,14.0,-999,-99.99,,,-99.99,,2013-05-30 21:22:00,
2013-05-30 14:33:00,57.0,-99.9,-100.00,West,270,10.0,14.0,-999,-99.99,,,-99.99,,2013-05-30 21:33:00,
2013-05-30 14:43:00,57.0,-99.9,-100.00,West,270,10.0,14.0,-999,-99.99,,,-99.99,,2013-05-30 21:43:00,
2013-05-30 14:53:00,58.0,-99.9,-100.00,West,270,12.0,14.0,-999,-99.99,,,-99.99,,2013-05-30 21:53:00,
2013-05-30 15:03:00,58.0,-99.9,-100.00,West,270,12.0,13.0,-999,-99.99,,,-99.99,,2013-05-30 22:03:00,
2013-05-30 15:12:00,58.0,-99.9,-100.00,West,270,12.0,13.0,-999,-99.99,,,-99.99,,2013-05-30 22:12:00,
2013-05-30 15:23:00,58.0,-99.9,-100.00,West,270,10.0,14.0,-999,-99.99,,,-99.99,,2013-05-30 22:23:00,
2013-05-30 15:33:00,59.0,-99.9,-100.00,West,270,11.0,14.0,-999,-99.99,,,-99.99,,2013-05-30 22:33:00,
2013-05-30 15:42:00,59.0,-99.9,-100.00,West,270,11.0,14.0,-999,-99.99,,,-99.99,,2013-05-30 22:42:00,
2013-05-30 15:52:00,59.0,-99.9,-100.00,West,270,13.0,16.0,-999,-99.99,,,-99.99,,2013-05-30 22:52:00,
2013-05-30 16:02:00,59.0,-99.9,-100.00,West,270,13.0,16.0,-999,-99.99,,,-99.99,,2013-05-30 23:02:00,
2013-05-30 16:12:00,59.0,-99.9,-100.00,West,270,13.0,16.0,-999,-99.99,,,-99.99,,2013-05-30 23:12:00,
2013-05-30 16:22:00,58.0,-99.9,-100.00,West,270,12.0,16.0,-999,-99.99,,,-99.99,,2013-05-30 23:22:00,
2013-05-30 16:32:00,58.0,-99.9,-100.00,West,270,11.0,16.0,-999,-99.99,,,-99.99,,2013-05-30 23:32:00,
2013-05-30 16:42:00,58.0,-99.9,-100.00,West,270,11.0,16.0,-999,-99.99,,,-99.99,,2013-05-30 23:42:00,
2013-05-30 16:52:00,58.0,-99.9,-100.00,West,270,9.0,13.0,-999,-99.99,,,-99.99,,2013-05-30 23:52:00,
2013-05-30 17:01:00,58.0,-99.9,-100.00,West,270,9.0,12.0,-999,-99.99,,,-99.99,,2013-05-31 00:01:00,
2013-05-30 17:11:00,58.0,-99.9,-100.00,West,270,9.0,12.0,-999,-99.99,,,-99.99,,2013-05-31 00:11:00,
2013-05-30 17:22:00,58.0,-99.9,-100.00,West,270,7.0,9.0,-999,-99.99,,,-99.99,,2013-05-31 00:22:00,
2013-05-30 17:32:00,58.0,-99.9,-100.00,West,270,7.0,9.0,-999,-99.99,,,-99.99,,2013-05-31 00:32:00,
2013-05-30 17:42:00,58.0,-99.9,-100.00,West,270,7.0,9.0,-999,-99.99,,,-99.99,,2013-05-31 00:42:00,
2013-05-30 17:52:00,58.0,-99.9,-100.00,SE,135,4.0,11.0,-999,-99.99,,,-99.99,,2013-05-31 00:52:00,
2013-05-30 18:01:00,58.0,-99.9,-100.00,East,90,6.0,11.0,-999,-99.99,,,-99.99,,2013-05-31 01:01:00,
2013-05-30 18:12:00,58.0,-99.9,-100.00,East,90,6.0,11.0,-999,-99.99,,,-99.99,,2013-05-31 01:12:00,
2013-05-30 18:22:00,58.0,-99.9,-100.00,East,90,4.0,11.0,-999,-99.99,,,-99.99,,2013-05-31 01:22:00,
2013-05-30 18:32:00,57.0,-99.9,-100.00,NE,45,2.0,10.0,-999,-99.99,,,-99.99,,2013-05-31 01:32:00,
2013-05-30 18:42:00,57.0,-99.9,-100.00,NE,45,2.0,10.0,-999,-99.99,,,-99.99,,2013-05-31 01:42:00,
2013-05-30 18:52:00,57.0,-99.9,-100.00,East,90,3.0,7.0,-999,-99.99,,,-99.99,,2013-05-31 01:52:00,
2013-05-30 19:02:00,56.0,-99.9,-100.00,West,270,1.0,6.0,-999,-99.99,,,-99.99,,2013-05-31 02:02:00,
2013-05-30 19:11:00,56.0,-99.9,-100.00,NW,315,1.0,4.0,-999,-99.99,,,-99.99,,2013-05-31 02:11:00,
2013-05-30 19:22:00,56.0,-99.9,-100.00,NW,315,1.0,4.0,-999,-99.99,,,-99.99,,2013-05-31 02:22:00,
2013-05-30 19:32:00,56.0,-99.9,-100.00,West,270,1.0,4.0,-999,-99.99,,,-99.99,,2013-05-31 02:32:00,
2013-05-30 19:42:00,56.0,-99.9,-100.00,West,270,1.0,4.0,-999,-99.99,,,-99.99,,2013-05-31 02:42:00,
2013-05-30 19:52:00,55.0,-99.9,-100.00,SW,225,0.0,4.0,-999,-99.99,,,-99.99,,2013-05-31 02:52:00,
2013-05-30 20:01:00,56.0,-99.9,-100.00,West,270,1.0,2.0,-999,-99.99,,,-99.99,,2013-05-31 03:01:00,
2013-05-30 20:11:00,56.0,-99.9,-100.00,West,270,2.0,3.0,-999,-99.99,,,-99.99,,2013-05-31 03:11:00,
2013-05-30 20:22:00,56.0,-99.9,-100.00,West,270,2.0,3.0,-999,-99.99,,,-99.99,,2013-05-31 03:22:00,
2013-05-30 20:33:00,56.0,-99.9,-100.00,NW,315,0.0,3.0,-999,-99.99,,,-99.99,,2013-05-31 03:33:00,
2013-05-30 20:43:00,56.0,-99.9,-100.00,NW,315,0.0,3.0,-999,-99.99,,,-99.99,,2013-05-31 03:43:00,
2013-05-30 20:54:00,56.0,-99.9,-100.00,NW,315,4.0,4.0,-999,-99.99,,,-99.99,,2013-05-31 03:54:00,
2013-05-30 21:03:00,55.0,-99.9,-100.00,North,0,4.0,5.0,-999,-99.99,,,-99.99,,2013-05-31 04:03:00,
2013-05-30 21:12:00,55.0,-99.9,-100.00,East,90,1.0,5.0,-999,-99.99,,,-99.99,,2013-05-31 04:12:00,
2013-05-30 21:23:00,55.0,-99.9,-100.00,East,90,1.0,5.0,-999,-99.99,,,-99.99,,2013-05-31 04:23:00,
2013-05-30 21:33:00,55.0,-99.9,-100.00,SE,135,3.0,4.0,-999,-99.99,,,-99.99,,2013-05-31 04:33:00,
2013-05-30 21:43:00,55.0,-99.9,-100.00,SE,135,3.0,4.0,-999,-99.99,,,-99.99,,2013-05-31 04:43:00,
2013-05-30 21:53:00,54.0,-99.9,-100.00,NW,315,1.0,4.0,-999,-99.99,,,-99.99,,2013-05-31 04:53:00,
2013-05-30 22:02:00,54.0,-99.9,-100.00,NW,315,1.0,4.0,-999,-99.99,,,-99.99,,2013-05-31 05:02:00,
2013-05-30 22:12:00,54.0,-99.9,-100.00,NW,315,1.0,4.0,-999,-99.99,,,-99.99,,2013-05-31 05:12:00,
2013-05-30 22:22:00,54.0,-99.9,-100.00,NW,315,1.0,3.0,-999,-99.99,,,-99.99,,2013-05-31 05:22:00,
2013-05-30 22:32:00,54.0,-99.9,-100.00,NW,315,0.0,2.0,-999,-99.99,,,-99.99,,2013-05-31 05:32:00,
2013-05-30 22:42:00,54.0,-99.9,-100.00,NW,315,0.0,2.0,-999,-99.99,,,-99.99,,2013-05-31 05:42:00,
2013-05-30 22:52:00,54.0,-99.9,-100.00,NW,315,0.0,1.0,-999,-99.99,,,-99.99,,2013-05-31 05:52:00,
2013-05-30 23:02:00,54.0,-99.9,-100.00,NW,315,0.0,1.0,-999,-99.99,,,-99.99,,2013-05-31 06:02:00,
2013-05-30 23:12:00,54.0,-99.9,-100.00,NW,315,0.0,1.0,-999,-99.99,,,-99.99,,2013-05-31 06:12:00,
2013-05-30 23:22:00,53.0,-99.9,-100.00,North,-999,0.0,0.0,-999,-99.99,,,-99.99,,2013-05-31 06:22:00,
2013-05-30 23:32:00,53.0,-99.9,-100.00,North,-999,0.0,0.0,-999,-99.99,,,-99.99,,2013-05-31 06:32:00,
2013-05-30 23:42:00,53.0,-99.9,-100.00,North,-999,0.0,0.0,-999,-99.99,,,-99.99,,2013-05-31 06:42:00,
2013-05-30 23:52:00,53.0,-99.9,-100.00,North,-999,0.0,0.0,-999,-99.99,,,-99.99,,2013-05-31 06:52:00,